Date String (YYYY-MM-DD hh:mm:ss) UTC,Instrument flags,Ambient pressure (hPa),Sample flow (lpm),Bypass flow (lpm),Sample temperature (°C),Ambient temperature (°C),ASC tube jacket temperature (°C),LED temperature (°C),Box temperature (°C),Sample RH (%),Span deviation,Mass concentration (μg/m³),Mass concentration (μg/m³),Mass concentration (μg/m³)
DateTimeUTC,F1_M11,P_M11,Q1_M11,Q2_M11,T1_M11,T2_M11,T3_M11,T4_M11,T5_M11,U1_M11,ZSPAN_M11,X2_M11,X0_M11,X1_M11
2023-04-09 09:00:00,,0833.2,4.99,0.00,24.5,22.8,00.0,32.8,26.1,14.8,0000.0,0003.35,0010.58,0001.82
2023-04-09 09:01:00,,0833.2,5.00,0.00,24.5,22.8,00.0,32.8,26.1,14.9,0000.0,0003.24,0010.24,0001.80
2023-04-09 09:02:00,,0833.2,5.00,0.00,24.5,22.7,00.0,32.8,26.0,14.9,0000.0,0003.15,0009.80,0001.79
2023-04-09 09:03:00,,0833.2,5.00,0.00,24.5,22.7,00.0,32.8,26.0,14.9,0000.0,0003.08,0009.20,0001.77
2023-04-09 09:04:00,,0833.2,5.00,0.00,24.4,22.7,00.0,32.8,26.0,15.0,0000.0,0003.10,0008.45,0001.77
2023-04-09 09:05:00,,0833.2,5.00,0.00,24.4,22.7,00.0,32.8,26.0,15.0,0000.0,0003.14,0008.34,0001.78
2023-04-09 09:06:00,,0833.3,5.00,0.00,24.4,22.7,00.0,32.8,26.0,15.1,0000.0,0003.16,0008.13,0001.78
2023-04-09 09:07:00,,0833.2,5.00,0.00,24.4,22.6,00.0,32.8,26.0,15.0,0000.0,0003.17,0007.80,0001.79
2023-04-09 09:08:00,,0833.2,5.00,0.00,24.4,22.6,00.0,32.8,26.0,15.1,0000.0,0003.18,0007.87,0001.79
2023-04-09 09:09:00,,0833.2,5.01,0.00,24.4,22.6,00.0,32.8,25.9,15.0,0000.0,0003.17,0007.71,0001.81
2023-04-09 09:10:00,,0833.2,5.01,0.00,24.4,22.6,00.0,32.8,26.0,15.0,0000.0,0003.15,0007.46,0001.80
2023-04-09 09:11:00,,0833.2,5.00,0.00,24.4,22.6,00.0,32.7,25.9,15.1,0000.0,0003.11,0007.38,0001.80
2023-04-09 09:12:00,,0833.2,5.00,0.00,24.4,22.6,00.0,32.7,25.9,15.1,0000.0,0003.16,0007.91,0001.82
2023-04-09 09:13:00,,0833.2,4.99,0.00,24.3,22.6,00.0,32.7,25.9,15.1,0000.0,0003.18,0008.15,0001.84
2023-04-09 09:14:00,,0833.2,4.99,0.00,24.3,22.6,00.0,32.7,25.9,15.2,0000.0,0003.18,0008.10,0001.85
2023-04-09 09:15:00,,0833.2,5.00,0.00,24.3,22.5,00.0,32.7,25.9,15.2,0000.0,0003.15,0007.86,0001.85
2023-04-09 09:16:00,,0833.2,4.99,0.00,24.3,22.5,00.0,32.7,25.9,15.2,0000.0,0003.15,0007.89,0001.87
2023-04-09 09:17:00,,0833.2,5.00,0.00,24.3,22.5,00.0,32.7,25.8,15.2,0000.0,0003.17,0007.39,0001.89
2023-04-09 09:18:00,,0833.2,5.00,0.00,24.3,22.5,00.0,32.7,25.8,15.2,0000.0,0003.14,0007.47,0001.89
2023-04-09 09:19:00,,0833.3,5.02,0.00,24.3,22.5,00.0,32.7,25.7,15.1,0000.0,0003.13,0007.90,0001.88
2023-04-09 09:20:00,,0833.3,5.00,0.00,24.3,22.5,00.0,32.6,25.8,15.2,0000.0,0003.15,0008.01,0001.89
2023-04-09 09:21:00,,0833.2,5.00,0.00,24.2,22.5,00.0,32.6,25.9,15.2,0000.0,0003.17,0008.30,0001.89
2023-04-09 09:22:00,,0833.2,5.00,0.00,24.2,22.5,00.0,32.6,25.8,15.3,0000.0,0003.21,0008.66,0001.92
2023-04-09 09:23:00,,0833.3,5.00,0.00,24.2,22.5,00.0,32.6,25.8,15.3,0000.0,0003.26,0009.07,0001.92
2023-04-09 09:24:00,,0833.3,5.00,0.00,24.2,22.5,00.0,32.6,25.7,15.4,0000.0,0003.32,0008.87,0001.93
2023-04-09 09:25:00,,0833.2,4.99,0.00,24.2,22.5,00.0,32.6,25.8,15.4,0000.0,0003.35,0009.01,0001.94
2023-04-09 09:26:00,,0833.2,5.00,0.00,24.2,22.5,00.0,32.6,25.8,15.4,0000.0,0003.40,0009.48,0001.96
2023-04-09 09:27:00,,0833.2,4.99,0.00,24.2,22.5,00.0,32.6,25.7,15.4,0000.0,0003.38,0009.44,0001.95
2023-04-09 09:28:00,,0833.2,5.01,0.00,24.2,22.5,00.0,32.6,25.7,15.4,0000.0,0003.37,0009.61,0001.94
2023-04-09 09:29:00,,0833.2,5.00,0.00,24.2,22.5,00.0,32.6,25.7,15.4,0000.0,0003.43,0009.90,0001.96
2023-04-09 09:30:00,,0833.2,4.99,0.00,24.2,22.5,00.0,32.6,25.7,15.4,0000.0,0003.49,0009.66,0001.98
2023-04-09 09:31:00,,0833.2,5.00,0.00,24.2,22.5,00.0,32.6,25.7,15.4,0000.0,0003.46,0009.82,0001.99
2023-04-09 09:32:00,,0833.2,5.00,0.00,24.2,22.4,00.0,32.6,25.7,15.4,0000.0,0003.44,0009.69,0001.99
2023-04-09 09:33:00,,0833.2,4.99,0.00,24.2,22.4,00.0,32.5,25.7,15.4,0000.0,0003.42,0009.85,0002.00
2023-04-09 09:34:00,,0833.2,5.02,0.00,24.2,22.4,00.0,32.5,25.7,15.3,0000.0,0003.41,0009.56,0002.00
2023-04-09 09:35:00,,0833.2,5.00,0.00,24.2,22.4,00.0,32.5,25.7,15.3,0000.0,0003.32,0009.35,0001.99
2023-04-09 09:36:00,,0833.2,5.00,0.00,24.2,22.4,00.0,32.5,25.7,15.3,0000.0,0003.33,0009.21,0001.98
2023-04-09 09:37:00,,0833.2,4.99,0.00,24.2,22.4,00.0,32.5,25.7,15.1,0000.0,0003.33,0008.83,0001.98
2023-04-09 09:38:00,,0833.2,5.00,0.00,24.2,22.4,00.0,32.5,25.7,15.0,0000.0,0003.36,0008.88,0001.99
2023-04-09 09:39:00,,0833.2,5.01,0.00,24.2,22.4,00.0,32.5,25.7,15.0,0000.0,0003.35,0009.00,0001.99
2023-04-09 09:40:00,,0833.2,5.00,0.00,24.2,22.5,00.0,32.5,25.7,14.9,0000.0,0003.31,0009.36,0001.99
2023-04-09 09:41:00,,0833.1,5.00,0.00,24.2,22.5,00.0,32.5,25.7,14.9,0000.0,0003.24,0009.22,0001.98
2023-04-09 09:42:00,,0833.1,5.01,0.00,24.2,22.5,00.0,32.5,25.7,15.0,0000.0,0003.19,0008.76,0001.96
2023-04-09 09:43:00,,0833.1,5.00,0.00,24.2,22.5,00.0,32.5,25.7,14.9,0000.0,0003.20,0008.80,0001.95
2023-04-09 09:44:00,,0833.2,5.00,0.00,24.2,22.5,00.0,32.5,25.7,14.9,0000.0,0003.19,0008.20,0001.94
2023-04-09 09:45:00,,0833.4,5.00,0.00,24.2,22.5,00.0,32.5,25.7,14.9,0000.0,0003.20,0008.11,0001.93
2023-04-09 09:46:00,,0833.4,5.00,0.00,24.2,22.5,00.0,32.5,25.8,14.9,0000.0,0003.24,0008.30,0001.94
2023-04-09 09:47:00,,0833.2,5.00,0.00,24.2,22.6,00.0,32.5,25.8,14.9,0000.0,0003.24,0008.39,0001.93
2023-04-09 09:48:00,,0833.3,5.00,0.00,24.2,22.5,00.0,32.5,25.7,15.0,0000.0,0003.26,0008.52,0001.93
2023-04-09 09:49:00,,0833.3,5.00,0.00,24.2,22.5,00.0,32.5,25.8,15.0,0000.0,0003.28,0008.99,0001.93
2023-04-09 09:50:00,,0833.2,5.00,0.00,24.2,22.5,00.0,32.5,25.9,15.1,0000.0,0003.30,0008.83,0001.94
2023-04-09 09:51:00,,0833.0,5.01,0.00,24.2,22.5,00.0,32.5,25.8,15.1,0000.0,0003.31,0008.27,0001.95
2023-04-09 09:52:00,,0833.1,5.00,0.00,24.2,22.5,00.0,32.5,25.8,15.0,0000.0,0003.33,0008.06,0001.96
2023-04-09 09:53:00,,0833.0,5.01,0.00,24.2,22.5,00.0,32.5,25.7,15.0,0000.0,0003.39,0008.27,0001.98
2023-04-09 09:54:00,,0833.0,5.00,0.00,24.2,22.5,00.0,32.5,25.8,15.0,0000.0,0003.40,0008.30,0001.99
2023-04-09 09:55:00,,0833.1,4.99,0.00,24.2,22.5,00.0,32.5,25.7,15.1,0000.0,0003.44,0008.41,0001.99
2023-04-09 09:56:00,,0833.1,5.00,0.00,24.2,22.5,00.0,32.5,25.7,15.1,0000.0,0003.41,0008.27,0001.98
2023-04-09 09:57:00,,0833.1,5.01,0.00,24.2,22.5,00.0,32.5,25.7,15.1,0000.0,0003.40,0008.23,0001.98
2023-04-09 09:58:00,,0833.2,5.00,0.00,24.2,22.5,00.0,32.5,25.7,15.1,0000.0,0003.40,0008.94,0001.98
2023-04-09 09:59:00,,0833.2,5.01,0.00,24.2,22.5,00.0,32.5,25.8,15.1,0000.0,0003.41,0008.94,0001.99
